Weather in Porto-Novo

Benin     6°28′30″N   2°37′55″E
temp.,
°C
wind,
m/s
gust,
m/s
humid.,
%
clouds,
%
prec.,
mm/h
press.,
hPa
HPBL,
m
19 april, mon
mon1901:00+27ssw2579100 0.0 1010162
04:00+26ssw248292 0.0 1008106
07:00+26sw2483100 0.0 1009130
10:00+31s3356100 0.0 10111129
13:00+33s544839 0.0 10101420
16:00+33s54515 0.0 10081355
19:00+28ssw36766 0.0 1009484
22:00+27ssw378350 0.0 1010462
20 april, tue
tue2001:00+27ssw3782100 0.0 1009442
04:00+27sw2683100 0.0 1008297
07:00+26sw268696 0.0 1010247
10:00+32ssw4460100 0.1 10111355
13:00+34s54496 0.1 10101639
16:00+33s55524 0.0 10071443
19:00+28ssw58770 0.0 1007735
22:00+27s25830 0.0 1010282
21 april, wed
wed2101:00+26ssw258785 0.0 1010187
04:00+26wsw25895 0.1 1008155
07:00+26wsw25897 0.1 1010194
10:00+31sw456270 0.0 10111124
13:00+34ssw5451100 0.0 10091480
16:00+32ssw5456100 0.0 10071246
19:00+28ssw477898 0.0 1007537
22:00+27ssw488313 0.0 1009508
22 april, thu
thu2201:00+27ssw3785100 0.0 1009390
04:00+26w2488100 0.2 1009123
07:00+26sw2587100 0.5 1010204
10:00+31sw446182 0.6 10111114
13:00+34sw545032 0.6 10101530
16:00+32ssw5656100 0.0 10081135
19:00+28sw488049 0.0 1008750
22:00+27ssw3884100 0.7 1010469
23 april, fri
fri2301:00+26wsw2389100 0.8 1010112
04:00+26w2489100 0.3 1009129
07:00+26wsw2388100 0.5 100987
10:00+32sw4559100 0.0 10111166
13:00+34sw6551100 0.0 10091490
16:00+32sw795542 0.0 10061080
19:00+28sw3875100 2.3 1009379
22:00+28ssw4977100 0.3 1010436